Hourly Weather Kiszewo

Today, 25 October, Sunday

Time Temperature Precipitation Wind Pressure Humidity
00:00 +10°C° 0 mm 3 mps 756 mmHg 92%
01:00 +10°C° 0 mm 3 mps 756 mmHg 93%
02:00 +10°C° 0 mm 3 mps 756 mmHg 93%
03:00 +9°C° 0 mm 3 mps 756 mmHg 93%
04:00 +9°C° 0 mm 3 mps 755 mmHg 93%
05:00 +9°C° 0 mm 3 mps 756 mmHg 92%
06:00 +9°C° 0 mm 3 mps 756 mmHg 92%
07:00 +9°C° 0 mm 3 mps 756 mmHg 92%
08:00 +10°C° 0 mm 3 mps 755 mmHg 86%
09:00 +12°C° 0 mm 4 mps 755 mmHg 81%
10:00 +14°C° 0 mm 4 mps 755 mmHg 75%
11:00 +15°C° 0 mm 4 mps 755 mmHg 70%
12:00 +15°C° 0 mm 4 mps 755 mmHg 66%
13:00 +17°C° 0 mm 4 mps 754 mmHg 61%
14:00 +17°C° 0 mm 4 mps 754 mmHg 65%
15:00 +15°C° 0 mm 4 mps 753 mmHg 68%
16:00 +14°C° 0 mm 3 mps 753 mmHg 72%
17:00 +14°C° 0 mm 3 mps 753 mmHg 76%
18:00 +13°C° 0 mm 4 mps 753 mmHg 80%
19:00 +12°C° 0 mm 4 mps 753 mmHg 85%
20:00 +12°C° 0 mm 4 mps 753 mmHg 86%
21:00 +12°C° 0 mm 4 mps 752 mmHg 87%
22:00 +12°C° 0 mm 4 mps 752 mmHg 88%
23:00 +11°C° 0 mm 4 mps 752 mmHg 89%

Tomorrow, 26 October, Monday

Time Temperature Precipitation Wind Pressure Humidity
00:00 +11°C° 0 mm 3 mps 752 mmHg 90%
01:00 +10°C° 0 mm 3 mps 751 mmHg 91%
02:00 +10°C° 0 mm 3 mps 751 mmHg 92%
03:00 +10°C° 0 mm 3 mps 751 mmHg 92%
04:00 +9°C° 0 mm 2 mps 751 mmHg 93%
05:00 +9°C° 0 mm 2 mps 751 mmHg 93%
06:00 +9°C° 0 mm 2 mps 750 mmHg 94%
07:00 +9°C° 0 mm 2 mps 750 mmHg 94%
08:00 +10°C° 0 mm 2 mps 750 mmHg 89%
09:00 +13°C° 0 mm 2 mps 750 mmHg 83%
10:00 +14°C° 0 mm 2 mps 750 mmHg 78%
11:00 +15°C° 0 mm 2 mps 750 mmHg 75%
12:00 +16°C° 0 mm 2 mps 750 mmHg 72%
13:00 +17°C° 0 mm 3 mps 750 mmHg 68%
14:00 +16°C° 0 mm 3 mps 750 mmHg 72%
15:00 +15°C° 0 mm 2 mps 749 mmHg 75%
16:00 +15°C° 0 mm 2 mps 749 mmHg 78%
17:00 +14°C° 0.1 mm 2 mps 750 mmHg 81%
18:00 +14°C° 0.1 mm 2 mps 750 mmHg 84%
19:00 +13°C° 0.1 mm 2 mps 750 mmHg 87%
20:00 +13°C° 0 mm 2 mps 750 mmHg 89%
21:00 +13°C° 0 mm 2 mps 751 mmHg 90%
22:00 +12°C° 0 mm 2 mps 751 mmHg 92%
23:00 +12°C° 0 mm 2 mps 751 mmHg 93%

Day after tomorrow, 27 October, Tuesday

Time Temperature Precipitation Wind Pressure Humidity
00:00 +10°C° 0 mm 2 mps 751 mmHg 93%
01:00 +10°C° 0 mm 2 mps 751 mmHg 93%
02:00 +9°C° 0 mm 2 mps 751 mmHg 93%
03:00 +9°C° 0 mm 2 mps 751 mmHg 92%
04:00 +10°C° 0 mm 1 mps 751 mmHg 92%
05:00 +10°C° 0.1 mm 1 mps 751 mmHg 91%
06:00 +10°C° 0.1 mm 1 mps 752 mmHg 90%
07:00 +10°C° 0.1 mm 1 mps 752 mmHg 89%
08:00 +11°C° 0.1 mm 1 mps 752 mmHg 89%
09:00 +11°C° 0.1 mm 1 mps 752 mmHg 89%
10:00 +11°C° 0.1 mm 1 mps 752 mmHg 88%
11:00 +11°C° 0.2 mm 1 mps 752 mmHg 89%
12:00 +11°C° 0.2 mm 1 mps 752 mmHg 89%
13:00 +11°C° 0.2 mm 1 mps 752 mmHg 89%
14:00 +11°C° 0.4 mm 1 mps 752 mmHg 90%
15:00 +10°C° 0.4 mm 2 mps 752 mmHg 92%
16:00 +9°C° 0.4 mm 2 mps 752 mmHg 93%
17:00 +9°C° 0.3 mm 2 mps 753 mmHg 93%
18:00 +9°C° 0.3 mm 2 mps 753 mmHg 93%
19:00 +10°C° 0.3 mm 1 mps 753 mmHg 93%
20:00 +9°C° 0 mm 2 mps 753 mmHg 92%
21:00 +9°C° 0 mm 2 mps 754 mmHg 91%
22:00 +9°C° 0 mm 2 mps 754 mmHg 90%
23:00 +8°C° 0 mm 2 mps 754 mmHg 90%

28 October, Wednesday

Time Temperature Precipitation Wind Pressure Humidity
00:00 +8°C° 0 mm 3 mps 754 mmHg 90%
01:00 +7°C° 0 mm 3 mps 754 mmHg 90%
02:00 +7°C° 0 mm 3 mps 754 mmHg 90%
03:00 +7°C° 0 mm 3 mps 754 mmHg 89%
04:00 +7°C° 0 mm 3 mps 754 mmHg 88%
05:00 +7°C° 0 mm 3 mps 754 mmHg 88%
06:00 +6°C° 0 mm 4 mps 755 mmHg 89%
07:00 +6°C° 0 mm 4 mps 755 mmHg 89%
08:00 +7°C° 0 mm 4 mps 755 mmHg 81%
09:00 +9°C° 0 mm 5 mps 754 mmHg 74%
10:00 +10°C° 0 mm 5 mps 754 mmHg 66%
11:00 +12°C° 0 mm 5 mps 754 mmHg 64%
12:00 +12°C° 0 mm 5 mps 754 mmHg 62%
13:00 +13°C° 0 mm 5 mps 754 mmHg 60%
14:00 +12°C° 0 mm 4 mps 754 mmHg 63%
15:00 +12°C° 0 mm 4 mps 754 mmHg 66%
16:00 +11°C° 0 mm 3 mps 754 mmHg 69%
17:00 +11°C° 0 mm 3 mps 754 mmHg 70%
18:00 +10°C° 0 mm 3 mps 754 mmHg 72%
19:00 +10°C° 0 mm 4 mps 754 mmHg 73%
20:00 +10°C° 0 mm 4 mps 754 mmHg 75%
21:00 +8°C° 0 mm 4 mps 754 mmHg 77%
22:00 +8°C° 0 mm 4 mps 755 mmHg 79%
23:00 +7°C° 0 mm 4 mps 755 mmHg 80%

29 October, Thursday

Time Temperature Precipitation Wind Pressure Humidity
00:00 +7°C° 0 mm 4 mps 754 mmHg 80%
01:00 +7°C° 0 mm 4 mps 754 mmHg 81%
02:00 +7°C° 0 mm 4 mps 754 mmHg 82%
03:00 +7°C° 0 mm 4 mps 754 mmHg 83%
04:00 +7°C° 0 mm 4 mps 754 mmHg 83%
05:00 +8°C° 0 mm 4 mps 754 mmHg 82%
06:00 +8°C° 0 mm 4 mps 754 mmHg 81%
07:00 +9°C° 0 mm 5 mps 754 mmHg 80%
08:00 +9°C° 0.2 mm 5 mps 754 mmHg 80%
09:00 +9°C° 0.2 mm 6 mps 755 mmHg 79%
10:00 +10°C° 0.2 mm 7 mps 755 mmHg 79%
11:00 +11°C° 0.1 mm 7 mps 755 mmHg 73%
12:00 +12°C° 0.1 mm 7 mps 755 mmHg 68%
13:00 +12°C° 0.1 mm 7 mps 755 mmHg 63%
14:00 +13°C° 0 mm 6 mps 756 mmHg 65%
15:00 +12°C° 0 mm 5 mps 756 mmHg 68%
16:00 +11°C° 0 mm 4 mps 756 mmHg 71%
17:00 +11°C° 0 mm 4 mps 757 mmHg 74%
18:00 +10°C° 0 mm 4 mps 757 mmHg 76%
19:00 +8°C° 0 mm 4 mps 758 mmHg 78%
20:00 +8°C° 0 mm 4 mps 758 mmHg 80%
21:00 +8°C° 0 mm 4 mps 758 mmHg 81%
22:00 +7°C° 0 mm 4 mps 758 mmHg 83%
23:00 +8°C° 0 mm 4 mps 758 mmHg 82%

30 October, Friday

Time Temperature Precipitation Wind Pressure Humidity
00:00 +8°C° 0 mm 4 mps 758 mmHg 82%
01:00 +8°C° 0 mm 5 mps 758 mmHg 81%
02:00 +8°C° 0 mm 5 mps 758 mmHg 80%
03:00 +9°C° 0 mm 5 mps 758 mmHg 79%
04:00 +9°C° 0 mm 6 mps 757 mmHg 78%
05:00 +9°C° 0.1 mm 6 mps 757 mmHg 80%
06:00 +10°C° 0.1 mm 6 mps 757 mmHg 82%
07:00 +10°C° 0.1 mm 6 mps 757 mmHg 84%
08:00 +11°C° 0 mm 6 mps 758 mmHg 82%
09:00 +13°C° 0 mm 6 mps 758 mmHg 79%
10:00 +14°C° 0 mm 6 mps 758 mmHg 76%
11:00 +14°C° 0 mm 6 mps 758 mmHg 75%
12:00 +15°C° 0 mm 6 mps 758 mmHg 73%
13:00 +15°C° 0 mm 6 mps 758 mmHg 71%
14:00 +15°C° 0 mm 5 mps 758 mmHg 73%
15:00 +14°C° 0 mm 5 mps 758 mmHg 74%
16:00 +14°C° 0 mm 4 mps 759 mmHg 76%
17:00 +14°C° 0 mm 4 mps 759 mmHg 77%
18:00 +13°C° 0 mm 4 mps 759 mmHg 78%
19:00 +13°C° 0 mm 4 mps 759 mmHg 79%
20:00 +12°C° 0 mm 3 mps 759 mmHg 82%
21:00 +12°C° 0 mm 3 mps 759 mmHg 84%
22:00 +11°C° 0 mm 3 mps 759 mmHg 87%
23:00 +11°C° 0 mm 3 mps 759 mmHg 88%
Show more